HS5XHC-1 Weather Reports


time (UTC)temp
C
wind
direction
speed
KPH
gust
KPH
rain 1hr
cm
rain 24hr
cm
rain mn
cm
humidity
%
barometer
mb
20260504050418 33 0 0.0 0.0 0.00 0.00 0.00 36 968.0
20260504045354 33 0 0.0 0.0 0.00 0.00 0.00 36 969.0
20260504044330 32 0 0.0 0.0 0.00 0.00 0.00 36 969.0
20260504043306 32 0 0.0 0.0 0.00 0.00 0.00 37 969.0
20260504042242 31 0 0.0 0.0 0.00 0.00 0.00 39 969.0
20260504041218 31 0 0.0 0.0 0.00 0.00 0.00 41 969.0
20260504040155 31 0 0.0 0.0 0.00 0.00 0.00 40 969.0
20260504035130 31 0 0.0 0.0 0.00 0.00 0.00 42 969.0
20260504034106 30 0 0.0 0.0 0.00 0.00 0.00 42 969.0
20260504033042 29 0 0.0 0.0 0.00 0.00 0.00 45 970.0
20260504032018 29 0 0.0 0.0 0.00 0.00 0.00 47 970.0
20260504030954 29 0 0.0 0.0 0.00 0.00 0.00 46 970.0
20260504025930 29 0 0.0 0.0 0.00 0.00 0.00 49 970.0
20260504024906 28 0 0.0 0.0 0.00 0.00 0.00 50 970.0
20260504023842 28 0 0.0 0.0 0.00 0.00 0.00 51 970.0
20260504022818 28 0 0.0 0.0 0.00 0.00 0.00 52 970.0
20260504021754 27 0 0.0 0.0 0.00 0.00 0.00 54 970.0
20260504020730 27 0 0.0 0.0 0.00 0.00 0.00 55 970.0
20260504015706 27 0 0.0 0.0 0.00 0.00 0.00 55 970.0
20260504014642 27 0 0.0 0.0 0.00 0.00 0.00 57 970.0
20260504013618 26 0 0.0 0.0 0.00 0.00 0.00 58 970.0
20260504012554 27 0 0.0 0.0 0.00 0.00 0.00 58 969.0
20260504011530 26 0 0.0 0.0 0.00 0.00 0.00 59 969.0
20260504010506 26 0 0.0 0.0 0.00 0.00 0.00 57 969.0
20260504004418 26 0 0.0 0.0 0.00 0.00 0.00 57 969.0
20260504003354 27 0 0.0 0.0 0.00 0.00 0.00 56 969.0
20260504002329 27 0 0.0 0.0 0.00 0.00 0.00 57 969.0
20260504001305 26 0 0.0 0.0 0.00 0.00 0.00 58 969.0
20260504000241 27 0 0.0 0.0 0.00 0.00 0.00 56 968.0
20260503235217 25 0 0.0 0.0 0.00 0.00 0.00 60 968.0
20260503234153 26 0 0.0 0.0 0.00 0.00 0.00 60 968.0
20260503233129 26 0 0.0 0.0 0.00 0.00 0.00 60 968.0
20260503232105 26 0 0.0 0.0 0.00 0.00 0.00 58 968.0
20260503231042 27 0 0.0 0.0 0.00 0.00 0.00 55 968.0
20260503230018 27 0 0.0 0.0 0.00 0.00 0.00 54 968.0
20260503224954 27 0 0.0 0.0 0.00 0.00 0.00 54 968.0
20260503223929 27 0 0.0 0.0 0.00 0.00 0.00 54 968.0
20260503222905 27 0 0.0 0.0 0.00 0.00 0.00 54 968.0
20260503221841 27 0 0.0 0.0 0.00 0.00 0.00 54 968.0
20260503220817 27 0 0.0 0.0 0.00 0.00 0.00 53 967.0
20260503215753 27 0 0.0 0.0 0.00 0.00 0.00 54 967.0
20260503214729 27 0 0.0 0.0 0.00 0.00 0.00 53 967.0
20260503213705 27 0 0.0 0.0 0.00 0.00 0.00 54 967.0
20260503212641 26 0 0.0 0.0 0.00 0.00 0.00 55 967.0
20260503211618 27 0 0.0 0.0 0.00 0.00 0.00 55 967.0
20260503210554 26 0 0.0 0.0 0.00 0.00 0.00 57 967.0
20260503205530 27 0 0.0 0.0 0.00 0.00 0.00 54 967.0
20260503204506 27 0 0.0 0.0 0.00 0.00 0.00 54 967.0
20260503203441 26 0 0.0 0.0 0.00 0.00 0.00 57 967.0
20260503202417 26 0 0.0 0.0 0.00 0.00 0.00 57 967.0
20260503201353 27 0 0.0 0.0 0.00 0.00 0.00 55 967.0
20260503200330 27 0 0.0 0.0 0.00 0.00 0.00 54 967.0
20260503195901 27 0 0.0 0.0 0.00 0.00 0.00 54 967.0
20260503194837 27 0 0.0 0.0 0.00 0.00 0.00 54 967.0
20260503193750 26 0 0.0 0.0 0.00 0.00 0.00 57 966.0
20260503192727 27 0 0.0 0.0 0.00 0.00 0.00 57 967.0
20260503191703 27 0 0.0 0.0 0.00 0.00 0.00 55 967.0
20260503190639 27 0 0.0 0.0 0.00 0.00 0.00 55 967.0
20260503185615 27 0 0.0 0.0 0.00 0.00 0.00 57 967.0
20260503184551 26 0 0.0 0.0 0.00 0.00 0.00 58 967.0
20260503183527 26 0 0.0 0.0 0.00 0.00 0.00 58 967.0
20260503182503 27 0 0.0 0.0 0.00 0.00 0.00 57 967.0
20260503181439 27 0 0.0 0.0 0.00 0.00 0.00 55 967.0
20260503180414 27 0 0.0 0.0 0.00 0.00 0.00 54 967.0
20260503175350 27 0 0.0 0.0 0.00 0.00 0.00 54 967.0
20260503174326 28 0 0.0 0.0 0.00 0.00 0.00 52 967.0
20260503173302 29 0 0.0 0.0 0.00 0.00 0.00 50 967.0
20260503172238 28 0 0.0 0.0 0.00 0.00 0.00 52 967.0
20260503171214 28 0 0.0 0.0 0.00 0.00 0.00 51 967.0
20260503170151 28 0 0.0 0.0 0.00 0.00 0.00 52 967.0
20260503150615 27 0 0.0 0.0 0.00 0.00 0.00 56 967.0
20260503131152 30 0 0.0 0.0 0.00 0.00 0.00 45 965.0
20260503130128 30 0 0.0 0.0 0.00 0.00 0.00 43 965.0
20260503110703 35 0 0.0 0.0 0.00 0.00 0.00 30 963.0
20260503090215 37 0 0.0 0.0 0.00 0.00 0.00 27 962.0
20260503081015 37 0 0.0 0.0 0.00 0.00 0.00 26 963.0
20260503072840 37 0 0.0 0.0 0.00 0.00 0.00 27 964.0
20260503071816 37 0 0.0 0.0 0.00 0.00 0.00 27 964.0
20260503070752 36 0 0.0 0.0 0.00 0.00 0.00 27 964.0